[Iaude] MPEC E104: 2024 EE2 [a=2.28,e=0.67,i=5.9,H=24.9]

mpec at cfa.harvard.edu mpec at cfa.harvard.edu
Wed Mar 6 20:08:24 EST 2024


M.P.E.C. 2024-E104                                Issued 2024 March 7, 01:06 UT

     The Minor Planet Electronic Circulars contain information on unusual
         minor planets, routine data on comets and natural satellites,
         and occasional editorial announcements.  They are published
    on behalf of Division F of the International Astronomical Union by the
          Minor Planet Center, Smithsonian Astrophysical Observatory,
                          Cambridge, MA 02138, U.S.A.
			  
             Prepared using the Tamkin Foundation Computer Network

                              MPC at CFA.HARVARD.EDU
            URL https://www.minorplanetcenter.net/    ISSN 1523-6714

                                    2024 EE2                                    


Observations:
     K24E02E*1C2024 03 05.41537913 00 51.206+00 22 52.79         20.28GVEE104G96
     K24E02E 1C2024 03 05.42056813 00 55.922+00 22 07.43         20.39GVEE104G96
     K24E02E 1C2024 03 05.42574613 01 00.653+00 21 20.41         20.21GVEE104G96
     K24E02E 1C2024 03 05.43093813 01 05.408+00 20 33.40         20.39GVEE104G96
     K24E02E KC2024 03 06.30912613 17 00.56 -02 07 30.0          19.6 GXEE104858
     K24E02E KC2024 03 06.31499413 17 07.47 -02 08 36.9          20.3 GXEE104858
     K24E02E KC2024 03 06.32067213 17 14.19 -02 09 42.4          19.9 GXEE104858
     K24E02E KB2024 03 06.95784613 31 35.36 -04 23 07.6          20.2 GXEE104I93
     K24E02E KB2024 03 06.96771713 31 49.76 -04 25 23.8          20.0 GXEE104I93
     K24E02E KC2024 03 07.01868013 33 04.45 -04 37 09.5          19.6 GXEE104958
     K24E02E KC2024 03 07.02597113 33 15.10 -04 38 52.7          19.8 GXEE104958
     K24E02E KC2024 03 07.03320813 33 25.79 -04 40 32.7          19.5 GXEE104958

Observer details:
858 Tebbutt Observatory, Edgewood.  Observer F. B. Zoltowski.  0.51-m f/8.1
    Schmidt-Cassegrain + CCD.
958 Observatoire de Dax.  Observers P. Dupouy, J. B. de Vanssay.  Measurer P.
    Dupouy.  0.43-m f/2.7 Reflector + CCD.
G96 Mt. Lemmon Survey.  Observer G. J. Leonard.  Measurers T. Beuden, V. F.
    Carvajal, D. Fay, J. B. Fazekas, D. C. Fuls, A. R. Gibbs, A. D. Grauer, H.
    Groeller, J. K. Hogan, R. A. Kowalski, S. M. Larson, G. J. Leonard, D.
    Rankin, R. L. Seaman, F. C. Shelly, K. W. Wierzchos.  1.5-m reflector +
    10K CCD.
I93 St Pardon de Conques.  Observer F. Losse.  0.40-m f/3.7 reflector + CCD.

Orbital elements:
2024 EE2                                                 Earth MOID = 0.0039 AU
Epoch 2024 Mar. 31.0 TT = JDT 2460400.5                 MPC                     
M 353.52842              (2000.0)            P               Q                  
n   0.28669456     Peri.  250.46065     -0.47899523     +0.87766494             
a   2.2778393      Node   350.86750     -0.76177907     -0.42486856             
e   0.6741707      Incl.    5.91831     -0.43618370     -0.22179037             
P   3.44           H   24.93          G   0.15           U   9                  
Residuals in seconds of arc
240305 G96  0.1-  0.1-    240306 858  0.1+  0.3+    240306 I93  0.4+  0.2-
240305 G96  0.2-  0.8+    240306 858  0.1-  0.4+    240307 958  0.4+  0.2+
240305 G96  0.0   0.0     240306 858  0.1+  0.2-    240307 958  0.6-  0.9-
240305 G96  0.3+  0.7-    240306 I93  0.1-  0.1+    240307 958  0.2-  0.6+

Ephemeris:
2024 EE2                 a,e,i = 2.28, 0.67, 6                   q = 0.7422
Date    TT    R. A. (2000) Decl.     Delta      r    Elong.  Phase     V
2024 02 06    11 23 53.6 +13 24 03   0.4026  1.3466   148.8    22.3    24.7
...
2024 02 21    11 45 10.3 +11 22 36   0.2154  1.1908   157.7    18.4    22.9
...
2024 02 29    12 11 17.2 +07 54 06   0.1254  1.1082   158.5    19.1    21.6
...
2024 03 06    13 10 54.7 -01 09 46   0.06439 1.0474   148.3    29.9    20.4
2024 03 07    13 32 31.0 -04 30 42   0.05562 1.0375   143.2    34.9    20.2
2024 03 08    14 01 54.2 -08 57 16   0.04779 1.0275   136.0    42.2    20.0
...
2024 03 14    19 58 55.4 -31 19 44   0.04943 0.9694    58.6   118.9    23.1
...
2024 03 22    22 12 08.7 -22 58 19   0.1270  0.8972    36.3   138.9    26.9
...
2024 04 06    22 57 14.8 -17 20 44   0.2985  0.7896    38.6   127.8    27.3

A. U. Tomatic                (C) Copyright 2024 MPC           M.P.E.C. 2024-E104





More information about the Iaude mailing list